EW6598 Weather Reports


Display with metric or nautical units.
time (UTC)temp
F
wind
direction
speed
MPH
gust
MPH
rain 1hr
in
rain 24hr
in
rain mn
in
humidity
%
barometer
mb
20190219195215 98 45 0.0 0.0 0.00 0.00 0.00 26 949.2
20190219194715 100 45 0.0 0.0 0.00 0.00 0.00 24 949.1
20190219194215 101 90 0.0 0.0 0.00 0.00 0.00 24 949.3
20190219193715 101 45 0.0 0.0 0.00 0.00 0.00 24 949.4
20190219193215 99 0 0.0 0.0 0.00 0.00 0.00 27 949.4
20190219192715 96 90 0.0 0.0 0.00 0.00 0.00 29 949.6
20190219192215 96 45 0.0 0.0 0.00 0.00 0.00 29 949.6
20190219191715 97 135 0.0 0.0 0.00 0.00 0.00 28 949.7
20190219191215 99 135 0.0 0.0 0.00 0.00 0.00 25 949.6
20190219190715 101 90 0.0 0.0 0.00 0.00 0.00 25 949.8
20190219190215 102 68 0.0 0.0 0.00 0.00 0.00 24 949.8
20190219185714 102 45 0.0 0.0 0.00 0.00 0.00 25 949.9
20190219185216 101 45 0.0 0.0 0.00 0.00 0.00 24 949.9
20190219184715 102 135 0.0 0.0 0.00 0.00 0.00 25 950.1
20190219184215 103 135 0.0 0.0 0.00 0.00 0.00 25 950.1
20190219183715 102 135 0.0 0.0 0.00 0.00 0.00 25 950.2
20190219183215 101 270 0.0 0.0 0.00 0.00 0.00 26 950.3
20190219182715 101 180 0.0 0.0 0.00 0.00 0.00 25 950.4
20190219182215 100 270 0.0 0.0 0.00 0.00 0.00 26 950.6
20190219181714 100 90 0.0 0.0 0.00 0.00 0.00 26 950.6
20190219181215 100 135 0.0 0.0 0.00 0.00 0.00 26 950.7
20190219180715 99 135 0.0 0.0 0.00 0.00 0.00 27 950.7
20190219180215 99 0 0.0 0.0 0.00 0.00 0.00 27 950.9
20190219175715 99 0 0.0 0.0 0.00 0.00 0.00 27 951.0
20190219175215 99 180 0.0 0.0 0.00 0.00 0.00 28 951.1
20190219174715 99 225 0.0 0.0 0.00 0.00 0.00 28 951.1
20190219174215 100 158 0.0 0.0 0.00 0.00 0.00 25 951.2
20190219173715 101 45 0.0 0.0 0.00 0.00 0.00 27 951.3
20190219173214 100 135 0.0 0.0 0.00 0.00 0.00 27 951.4
20190219172714 101 180 0.0 0.0 0.00 0.00 0.00 27 951.3
20190219172215 101 45 0.0 0.0 0.00 0.00 0.00 27 951.5
20190219171720 100 23 0.0 0.0 0.00 0.00 0.00 27 951.5
20190219171215 100 180 0.0 0.0 0.00 0.00 0.00 28 951.6
20190219170715 99 158 0.0 0.0 0.00 0.00 0.00 27 951.6
20190219170215 99 315 0.0 0.0 0.00 0.00 0.00 26 951.8
20190219165715 99 90 0.0 0.0 0.00 0.00 0.00 27 951.9
20190219165215 98 180 0.0 0.0 0.00 0.00 0.00 28 952.0
20190219164715 98 315 0.0 0.0 0.00 0.00 0.00 30 952.0
20190219164214 96 0 0.0 0.0 0.00 0.00 0.00 30 952.1
20190219163715 96 315 0.0 0.0 0.00 0.00 0.00 30 952.1
20190219163215 96 315 0.0 0.0 0.00 0.00 0.00 30 952.2
20190219162715 96 225 0.0 0.0 0.00 0.00 0.00 30 952.2
20190219162215 96 180 0.0 0.0 0.00 0.00 0.00 30 952.3
20190219161715 95 113 0.0 0.0 0.00 0.00 0.00 32 952.4
20190219161215 93 90 0.0 0.0 0.00 0.00 0.00 35 952.5
20190219160714 93 45 0.0 0.0 0.00 0.00 0.00 34 952.7
20190219160215 94 135 0.0 0.0 0.00 0.00 0.00 33 952.5
20190219155715 94 180 0.0 0.0 0.00 0.00 0.00 32 952.8
20190219155215 96 135 0.0 0.0 0.00 0.00 0.00 32 952.8
20190219154715 96 180 0.0 0.0 0.00 0.00 0.00 30 952.8
20190219154215 96 180 0.0 0.0 0.00 0.00 0.00 31 952.9
20190219153715 96 113 0.0 0.0 0.00 0.00 0.00 30 952.9
20190219153215 96 180 0.0 0.0 0.00 0.00 0.00 33 953.0
20190219152714 95 45 0.0 0.0 0.00 0.00 0.00 33 953.1
20190219152216 94 180 0.0 0.0 0.00 0.00 0.00 34 953.2
20190219151715 93 180 0.0 0.0 0.00 0.00 0.00 34 953.2
20190219151215 94 90 0.0 0.0 0.00 0.00 0.00 35 953.2
20190219150715 94 90 0.0 0.0 0.00 0.00 0.00 34 953.3
20190219150215 96 90 0.0 0.0 0.00 0.00 0.00 32 953.3
20190219145715 96 90 0.0 0.0 0.00 0.00 0.00 32 953.4
20190219145215 98 270 0.0 0.0 0.00 0.00 0.00 30 953.4
20190219144715 99 158 0.0 0.0 0.00 0.00 0.00 29 953.4
20190219144215 98 45 0.0 0.0 0.00 0.00 0.00 30 953.5
20190219143715 98 135 0.0 0.0 0.00 0.00 0.00 28 953.4
20190219143215 98 315 0.0 0.0 0.00 0.00 0.00 29 953.5
20190219142715 98 45 0.0 0.0 0.00 0.00 0.00 31 953.6
20190219142215 98 113 0.0 0.0 0.00 0.00 0.00 30 953.5
20190219141715 98 135 0.0 1.0 0.00 0.00 0.00 30 953.5
20190219141215 98 225 0.0 1.0 0.00 0.00 0.00 31 953.6
20190219140715 97 180 0.0 1.0 0.00 0.00 0.00 33 953.5
20190219140215 97 90 0.0 0.0 0.00 0.00 0.00 31 953.6
20190219135715 97 45 0.0 0.0 0.00 0.00 0.00 31 953.7
20190219135215 97 180 0.0 0.0 0.00 0.00 0.00 30 953.7
20190219134715 97 90 0.0 0.0 0.00 0.00 0.00 31 953.6
20190219134214 97 180 0.0 0.0 0.00 0.00 0.00 30 953.6
20190219133715 97 90 0.0 0.0 0.00 0.00 0.00 31 953.7
20190219133215 97 113 0.0 0.0 0.00 0.00 0.00 32 953.7
20190219132715 97 135 0.0 0.0 0.00 0.00 0.00 33 953.7
20190219132215 96 90 0.0 0.0 0.00 0.00 0.00 32 953.7
20190219131715 96 225 0.0 0.0 0.00 0.00 0.00 32 953.8
20190219131215 96 45 0.0 0.0 0.00 0.00 0.00 32 953.7
20190219130715 96 180 0.0 0.0 0.00 0.00 0.00 31 953.7
20190219130214 96 180 0.0 0.0 0.00 0.00 0.00 30 953.7
20190219125714 96 180 0.0 0.0 0.00 0.00 0.00 30 953.7
20190219125215 96 90 0.0 0.0 0.00 0.00 0.00 31 953.7
20190219124715 95 225 0.0 0.0 0.00 0.00 0.00 31 953.7
20190219124215 95 158 0.0 0.0 0.00 0.00 0.00 32 953.8
20190219123715 95 248 0.0 0.0 0.00 0.00 0.00 31 953.8
20190219123215 95 90 0.0 0.0 0.00 0.00 0.00 30 953.7
20190219122715 94 135 0.0 0.0 0.00 0.00 0.00 33 953.7
20190219122215 94 225 0.0 0.0 0.00 0.00 0.00 33 953.8
20190219121715 93 180 0.0 0.0 0.00 0.00 0.00 35 953.7
20190219121214 92 315 0.0 0.0 0.00 0.00 0.00 36 953.7
20190219120715 91 180 0.0 0.0 0.00 0.00 0.00 39 953.7
20190219120215 89 45 0.0 0.0 0.00 0.00 0.00 41 953.7
20190219115715 87 45 0.0 0.0 0.00 0.00 0.00 47 953.7
20190219115215 84 90 0.0 0.0 0.00 0.00 0.00 47 953.6
20190219114715 84 225 0.0 0.0 0.00 0.00 0.00 47 953.7
20190219114215 86 45 0.0 0.0 0.00 0.00 0.00 44 953.7
20190219113715 87 180 0.0 0.0 0.00 0.00 0.00 45 953.6
20190219113215 86 270 0.0 0.0 0.00 0.00 0.00 47 953.5
20190219112715 84 0 0.0 0.0 0.00 0.00 0.00 49 953.4
20190219112215 83 315 0.0 0.0 0.00 0.00 0.00 50 953.4
20190219111715 82 315 0.0 0.0 0.00 0.00 0.00 56 953.4
20190219111215 78 270 0.0 0.0 0.00 0.00 0.00 59 953.4
20190219110715 77 338 0.0 0.0 0.00 0.00 0.00 61 953.3
20190219110215 76 315 0.0 0.0 0.00 0.00 0.00 62 953.3
20190219105715 75 270 0.0 0.0 0.00 0.00 0.00 63 953.2
20190219105215 75 0 0.0 0.0 0.00 0.00 0.00 63 953.2
20190219104715 74 270 0.0 0.0 0.00 0.00 0.00 63 953.2
20190219104215 74 315 0.0 0.0 0.00 0.00 0.00 63 953.1
20190219103715 74 315 0.0 0.0 0.00 0.00 0.00 63 953.1
20190219103215 74 315 0.0 0.0 0.00 0.00 0.00 63 953.0
20190219102715 74 315 0.0 0.0 0.00 0.00 0.00 63 952.9
20190219102215 74 315 0.0 0.0 0.00 0.00 0.00 63 952.9
20190219101715 74 90 0.0 0.0 0.00 0.00 0.00 63 953.0
20190219101214 74 90 0.0 0.0 0.00 0.00 0.00 62 952.9
20190219100714 74 315 0.0 0.0 0.00 0.00 0.00 62 952.9
20190219100215 74 0 0.0 0.0 0.00 0.00 0.00 62 952.9
20190219095715 74 0 0.0 0.0 0.00 0.00 0.00 62 952.9
20190219095215 74 180 0.0 0.0 0.00 0.00 0.00 62 952.9
20190219094715 74 0 0.0 0.0 0.00 0.00 0.00 61 952.8
20190219094215 74 45 0.0 0.0 0.00 0.00 0.00 61 952.8
20190219093715 74 338 0.0 0.0 0.00 0.00 0.00 61 952.8
20190219093215 74 0 0.0 0.0 0.00 0.00 0.00 60 952.8
20190219092715 75 0 0.0 0.0 0.00 0.00 0.00 60 952.9
20190219092215 75 225 0.0 0.0 0.00 0.00 0.00 59 952.8
20190219091715 75 135 0.0 0.0 0.00 0.00 0.00 59 952.8
20190219091214 76 0 0.0 0.0 0.00 0.00 0.00 58 952.7
20190219090715 76 45 0.0 0.0 0.00 0.00 0.00 58 952.5
20190219090215 76 0 0.0 0.0 0.00 0.00 0.00 58 952.5
20190219085719 76 315 0.0 0.0 0.00 0.00 0.00 58 952.4
20190219085215 76 315 0.0 0.0 0.00 0.00 0.00 58 952.5
20190219084715 75 315 0.0 0.0 0.00 0.00 0.00 59 952.4
20190219084216 75 315 0.0 0.0 0.00 0.00 0.00 58 952.5
20190219083715 75 0 0.0 0.0 0.00 0.00 0.00 58 952.7
20190219083216 75 90 0.0 0.0 0.00 0.00 0.00 58 952.7
20190219082716 76 315 0.0 0.0 0.00 0.00 0.00 58 952.7
20190219082216 76 90 0.0 0.0 0.00 0.00 0.00 58 952.5
20190219081716 76 270 0.0 0.0 0.00 0.00 0.00 58 952.7
20190219081216 76 90 0.0 0.0 0.00 0.00 0.00 58 952.5
20190219080716 76 225 0.0 0.0 0.00 0.00 0.00 58 952.4
20190219080215 76 180 0.0 0.0 0.00 0.00 0.00 58 952.4
20190219075712 75 180 0.0 0.0 0.00 0.00 0.00 57 952.4
20190219075211 76 135 0.0 0.0 0.00 0.00 0.00 56 952.3
20190219074710 76 90 0.0 0.0 0.00 0.00 0.00 55 952.3
20190219074212 77 225 0.0 0.0 0.00 0.00 0.00 54 952.3
20190219073710 77 45 0.0 0.0 0.00 0.00 0.00 53 952.3
20190219073210 78 180 0.0 0.0 0.00 0.00 0.00 52 952.3
20190219072710 79 180 0.0 0.0 0.00 0.00 0.00 50 952.2
20190219072210 80 180 0.0 0.0 0.00 0.00 0.00 48 952.1
20190219071710 81 158 0.0 0.0 0.00 0.00 0.00 47 952.1
20190219071210 81 135 0.0 0.0 0.00 0.00 0.00 46 951.8
20190219070709 81 135 0.0 0.0 0.00 0.00 0.00 46 951.8
20190219070211 81 45 0.0 0.0 0.00 0.00 0.00 46 951.7
20190219065711 81 315 0.0 0.0 0.00 0.00 0.00 46 951.6
20190219065211 81 0 0.0 0.0 0.00 0.00 0.00 46 951.6
20190219064710 81 90 0.0 0.0 0.00 0.00 0.00 45 951.7
20190219064211 81 0 0.0 0.0 0.00 0.00 0.00 45 951.6
20190219063711 81 0 0.0 0.0 0.00 0.00 0.00 45 951.6
20190219063212 81 23 0.0 0.0 0.00 0.00 0.00 45 951.7
20190219062711 82 68 0.0 0.0 0.00 0.00 0.00 44 951.6
20190219062211 82 90 0.0 0.0 0.00 0.00 0.00 44 951.7
20190219061711 82 45 0.0 0.0 0.00 0.00 0.00 44 951.6
20190219061211 82 45 0.0 0.0 0.00 0.00 0.00 44 951.6
20190219060711 82 315 0.0 0.0 0.00 0.00 0.00 44 951.6
20190219060210 82 315 0.0 0.0 0.00 0.00 0.00 44 951.5
20190219055711 82 23 0.0 0.0 0.00 0.00 0.00 44 951.4
20190219055211 82 90 0.0 0.0 0.00 0.00 0.00 44 951.5
20190219054712 82 315 0.0 1.0 0.00 0.00 0.00 44 951.6
20190219054210 81 315 0.0 1.0 0.00 0.00 0.00 44 951.6
20190219053710 82 0 0.0 0.0 0.00 0.00 0.00 43 951.7
20190219053212 82 135 0.0 0.0 0.00 0.00 0.00 43 951.9
20190219052711 82 315 0.0 0.0 0.00 0.00 0.00 43 952.0
20190219052211 81 315 0.0 0.0 0.00 0.00 0.00 44 952.0
20190219051712 82 90 0.0 0.0 0.00 0.00 0.00 43 952.1
20190219051213 82 45 0.0 0.0 0.00 0.00 0.00 43 952.1
20190219050711 82 315 0.0 0.0 0.00 0.00 0.00 43 952.2
20190219050210 82 315 0.0 0.0 0.00 0.00 0.00 43 952.2
20190219045712 82 315 0.0 0.0 0.00 0.00 0.00 43 952.2
20190219045211 82 0 0.0 0.0 0.00 0.00 0.00 43 952.3
20190219044712 82 90 0.0 0.0 0.00 0.00 0.00 43 952.2
20190219044212 81 45 0.0 0.0 0.00 0.00 0.00 43 952.2
20190219043711 82 315 0.0 0.0 0.00 0.00 0.00 43 952.2
20190219043211 82 45 0.0 0.0 0.00 0.00 0.00 43 952.3
20190219042713 81 0 0.0 0.0 0.00 0.00 0.00 44 952.3
20190219042212 81 90 0.0 0.0 0.00 0.00 0.00 45 952.3
20190219041711 81 0 0.0 0.0 0.00 0.00 0.00 45 952.3
20190219041211 80 45 0.0 0.0 0.00 0.00 0.00 47 952.3
20190219040706 80 0 0.0 0.0 0.00 0.00 0.00 47 952.4
20190219040211 80 45 0.0 0.0 0.00 0.00 0.00 47 952.3
20190219035705 81 90 0.0 0.0 0.00 0.00 0.00 47 952.2
20190219035210 81 45 0.0 0.0 0.00 0.00 0.00 47 952.3
20190219034710 81 315 0.0 1.0 0.00 0.00 0.00 46 952.4
20190219034210 81 90 0.0 1.0 0.00 0.00 0.00 46 952.3
20190219033711 81 45 0.0 1.0 0.00 0.00 0.00 46 952.3
20190219033211 81 45 0.0 0.0 0.00 0.00 0.00 46 952.4
20190219032710 81 90 0.0 0.0 0.00 0.00 0.00 45 952.4
20190219032210 81 315 0.0 0.0 0.00 0.00 0.00 45 952.5
20190219031710 81 45 0.0 0.0 0.00 0.00 0.00 45 952.4
20190219031210 81 90 0.0 0.0 0.00 0.00 0.00 46 952.4
20190219030711 81 45 0.0 0.0 0.00 0.00 0.00 45 952.4
20190219025715 81 90 0.0 0.0 0.00 0.00 0.00 45 952.3
20190219025214 81 270 0.0 0.0 0.00 0.00 0.00 45 952.3
20190219024715 82 45 0.0 0.0 0.00 0.00 0.00 45 952.2
20190219024216 82 45 0.0 0.0 0.00 0.00 0.00 45 952.1
20190219023715 82 0 0.0 0.0 0.00 0.00 0.00 45 952.0
20190219023220 82 45 0.0 0.0 0.00 0.00 0.00 45 951.9
20190219022715 82 0 0.0 0.0 0.00 0.00 0.00 45 951.9
20190219022215 82 45 0.0 0.0 0.00 0.00 0.00 45 951.9
20190219021715 82 45 0.0 0.0 0.00 0.00 0.00 45 951.9
20190219021215 82 0 0.0 0.0 0.00 0.00 0.00 45 951.9
20190219020716 83 315 0.0 0.0 0.00 0.00 0.00 45 951.9
20190219020215 83 158 0.0 0.0 0.00 0.00 0.00 45 951.8
20190219015715 83 45 0.0 0.0 0.00 0.00 0.00 45 951.8
20190219015215 83 90 0.0 0.0 0.00 0.00 0.00 45 951.8
20190219014714 83 45 0.0 0.0 0.00 0.00 0.00 45 951.8
20190219014215 83 45 0.0 0.0 0.00 0.00 0.00 45 951.8
20190219013715 83 23 0.0 0.0 0.00 0.00 0.00 44 951.6
20190219013215 83 45 0.0 0.0 0.00 0.00 0.00 44 951.8
20190219012716 83 45 0.0 0.0 0.00 0.00 0.00 43 951.7
20190219012215 84 0 0.0 0.0 0.00 0.00 0.00 43 951.7
20190219011715 84 315 0.0 0.0 0.00 0.00 0.00 43 951.6
20190219011214 84 45 0.0 0.0 0.00 0.00 0.00 42 951.5
20190219010716 84 135 0.0 0.0 0.00 0.00 0.00 41 951.4
20190219010215 84 315 0.0 1.0 0.00 0.00 0.00 41 951.3
20190219005715 84 0 0.0 1.0 0.00 0.00 0.00 41 951.2
20190219005215 83 225 0.0 1.0 0.00 0.00 0.00 40 951.1
20190219004715 83 45 0.0 0.0 0.00 0.00 0.00 39 951.0
20190219004215 83 0 0.0 0.0 0.00 0.00 0.00 38 950.8
20190219003714 83 45 0.0 0.0 0.00 0.00 0.00 37 950.7
20190219003216 84 0 0.0 0.0 0.00 0.00 0.00 36 950.6
20190219002715 84 315 0.0 0.0 0.00 0.00 0.00 36 950.5
20190219002215 84 0 0.0 0.0 0.00 0.00 0.00 35 950.4
20190219001717 84 315 0.0 0.0 0.00 0.00 0.00 35 950.5
20190219001216 85 315 0.0 0.0 0.00 0.00 0.00 35 950.3
20190219000716 85 315 0.0 0.0 0.00 0.00 0.00 35 950.2
20190219000217 85 315 0.0 0.0 0.00 0.00 0.00 35 950.2
20190218235717 85 45 0.0 0.0 0.00 0.00 0.00 34 950.3
20190218235216 85 45 0.0 0.0 0.00 0.00 0.00 33 950.1
20190218234716 85 0 0.0 0.0 0.00 0.00 0.00 33 950.0
20190218234216 86 0 0.0 0.0 0.00 0.00 0.00 33 950.0
20190218233716 86 315 0.0 0.0 0.00 0.00 0.00 32 949.9
20190218233216 86 0 0.0 0.0 0.00 0.00 0.00 31 949.8
20190218232717 87 0 0.0 0.0 0.00 0.00 0.00 31 949.8
20190218232215 87 45 0.0 0.0 0.00 0.00 0.00 30 949.6
20190218231715 88 0 0.0 0.0 0.00 0.00 0.00 30 949.6
20190218231215 88 180 0.0 0.0 0.00 0.00 0.00 29 949.6
20190218230717 89 338 0.0 0.0 0.00 0.00 0.00 29 949.6
20190218230217 89 113 0.0 0.0 0.00 0.00 0.00 28 949.4
20190218225716 89 90 0.0 0.0 0.00 0.00 0.00 27 949.3
20190218225217 89 270 0.0 0.0 0.00 0.00 0.00 27 949.3
20190218224715 90 135 0.0 0.0 0.00 0.00 0.00 27 949.3
20190218224216 90 225 0.0 0.0 0.00 0.00 0.00 26 949.3
20190218223715 90 270 0.0 0.0 0.00 0.00 0.00 26 949.2
20190218223217 91 315 0.0 0.0 0.00 0.00 0.00 26 949.2
20190218222716 91 270 0.0 0.0 0.00 0.00 0.00 26 949.3
20190218222216 91 315 0.0 0.0 0.00 0.00 0.00 26 949.3
20190218221715 91 45 0.0 0.0 0.00 0.00 0.00 25 949.2
20190218221214 91 315 0.0 0.0 0.00 0.00 0.00 25 949.3
20190218220715 92 315 0.0 0.0 0.00 0.00 0.00 25 949.2
20190218220215 92 270 0.0 0.0 0.00 0.00 0.00 25 949.1
20190218215715 92 270 0.0 0.0 0.00 0.00 0.00 25 949.1
20190218215215 92 180 0.0 0.0 0.00 0.00 0.00 25 949.1
20190218214715 92 180 0.0 0.0 0.00 0.00 0.00 26 949.0
20190218214215 92 315 0.0 0.0 0.00 0.00 0.00 25 949.0
20190218213715 92 180 0.0 0.0 0.00 0.00 0.00 25 949.0
20190218213215 92 180 0.0 0.0 0.00 0.00 0.00 25 949.1
20190218212715 92 270 0.0 0.0 0.00 0.00 0.00 24 949.1
20190218212215 92 180 0.0 0.0 0.00 0.00 0.00 24 949.0
20190218211715 93 270 0.0 0.0 0.00 0.00 0.00 24 949.1
20190218211214 93 315 0.0 0.0 0.00 0.00 0.00 24 949.1
20190218210715 93 315 0.0 0.0 0.00 0.00 0.00 24 949.0
20190218210215 93 135 0.0 0.0 0.00 0.00 0.00 23 949.0
20190218205715 93 270 0.0 0.0 0.00 0.00 0.00 23 949.1
20190218205215 93 315 0.0 0.0 0.00 0.00 0.00 23 949.1
20190218204715 93 45 0.0 0.0 0.00 0.00 0.00 23 949.1
20190218204215 93 315 0.0 1.0 0.00 0.00 0.00 23 949.1
20190218203715 93 0 0.0 1.0 0.00 0.00 0.00 23 949.3
20190218203214 94 315 0.0 1.0 0.00 0.00 0.00 22 949.3
20190218202714 94 293 0.0 0.0 0.00 0.00 0.00 22 949.2
20190218202215 94 315 0.0 0.0 0.00 0.00 0.00 22 949.2
20190218201715 94 0 0.0 0.0 0.00 0.00 0.00 21 949.1
20190218201215 94 225 0.0 0.0 0.00 0.00 0.00 21 949.2
20190218200715 94 90 0.0 0.0 0.00 0.00 0.00 21 949.3
20190218200215 93 180 0.0 0.0 0.00 0.00 0.00 22 949.3
20190218195715 94 180 0.0 0.0 0.00 0.00 0.00 22 949.4